sat.trackr.live / text

‹ back to catalog

STARLINK-35986

NORAD 66853 · 2025-281F

PAYLOAD ACTIVE UNKNOWN

§ Identity

Operator
Country
US
Launch date
2025-12-02
Launch site
AFETR
Launch vehicle
Mass (kg)
RCS (m²)

Purposes: comms

External: N2YO · Heavens-Above · Gunter

§ Orbital elements

Epoch: 2026-05-24T20:06:52.792128Z

Period
94.27 min
Inclination
42.9988°
Eccentricity
0.0001300
Mean motion
15.27597455 rev/d
Perigee alt
482.1 km
Apogee alt
483.9 km
Semi-major
6,861.1 km
B*
9.7990e-4
RAAN
273.2396°
Arg perigee
274.6574°
Mean anomaly
85.4129°
Rev number
2,783

§ Raw data

STARLINK-359861 66853U 25281F   26144.83811102  .00026815  00000+0  97990-3 0  99952 66853  42.9988 273.2396 0001300 274.6574  85.4129 15.27597455 27830

JSON: /api/v1/satellites/66853 · /tle

For live sub-satellite position, see the globe view (requires WebGL).

§ Visibility from observer

Set your observer location to see the next 7 days of passes ≥ 10°. The values pass through the URL so the page stays shareable.

No JS? Fill the form by hand. The geolocation button needs JavaScript.